Location: Boiro
(42.6475°N, 8.8834°W)
Time: 22:44:06
(UTC+01:00)

A-11 Canister half - Pass Details

Date: 30 November 2021
Orbit: 1516 x 1684 km, 47.2° (Epoch: 18 January)

Event Time Altitude Azimuth Distance (km) Brightness Sun altitude
Rises 07:38:11 0° 194° (SSW) 4,732 11.6 -12.0°
Reaches altitude 10° 07:41:46 10° 184° (S) 3,776 11.3 -11.4°
Maximum altitude 07:49:30 28° 129° (SE) 2,676 11.2 -10.1°
Drops below altitude 10° 07:57:25 10° 76° (ENE) 3,896 12.0 -8.7°
Sets 08:01:10 0° 66° (ENE) 4,906 12.4 -8.1°
